TimeMDT,TemperatureF,Dew PointF,Humidity,Sea Level PressureIn,VisibilityMPH,Wind Direction,Wind SpeedMPH,Gust SpeedMPH,PrecipitationIn,Events,Conditions,WindDirDegrees,DateUTC
12:56 AM,21.0,14.0,74,30.16,-9999.0,Calm,Calm,-,0.01,,Unknown,0,2013-05-01 06:56:00
1:56 AM,21.0,12.0,68,30.16,-9999.0,Variable,3.5,-,N/A,,Unknown,0,2013-05-01 07:56:00
2:56 AM,19.9,10.9,68,30.17,-9999.0,Variable,3.5,-,N/A,,Unknown,0,2013-05-01 08:56:00
3:56 AM,19.9,10.0,65,30.19,-9999.0,Variable,3.5,-,N/A,,Unknown,0,2013-05-01 09:56:00
4:56 AM,19.9,10.9,68,30.21,-9999.0,Calm,Calm,-,N/A,,Unknown,0,2013-05-01 10:56:00
5:56 AM,19.0,12.0,74,30.25,-9999.0,Variable,3.5,-,N/A,,Unknown,0,2013-05-01 11:56:00
6:56 AM,19.0,10.9,71,30.30,-9999.0,NNE,4.6,-,N/A,,Unknown,30,2013-05-01 12:56:00
7:56 AM,21.0,10.9,65,30.32,-9999.0,NNE,5.8,-,N/A,,Unknown,20,2013-05-01 13:56:00
8:56 AM,21.0,12.9,71,30.36,-9999.0,Variable,3.5,-,N/A,,Unknown,0,2013-05-01 14:56:00
9:56 AM,25.0,10.9,55,30.38,-9999.0,Variable,3.5,-,N/A,,Unknown,0,2013-05-01 15:56:00
10:56 AM,25.0,12.0,58,30.41,-9999.0,Variable,4.6,-,N/A,,Unknown,0,2013-05-01 16:56:00
11:56 AM,26.1,10.0,51,30.44,-9999.0,Calm,Calm,-,N/A,,Unknown,0,2013-05-01 17:56:00
12:56 PM,24.1,16.0,71,30.47,-9999.0,NW,9.2,-,N/A,,Unknown,310,2013-05-01 18:56:00
1:56 PM,24.1,16.0,71,30.49,-9999.0,Variable,3.5,-,0.02,,Unknown,0,2013-05-01 19:56:00
2:56 PM,27.0,17.1,66,30.49,-9999.0,Variable,4.6,-,0.02,,Unknown,0,2013-05-01 20:56:00
3:56 PM,26.1,18.0,71,30.52,-9999.0,Variable,4.6,-,N/A,,Unknown,0,2013-05-01 21:56:00
4:56 PM,28.9,16.0,58,30.51,-9999.0,Variable,3.5,-,N/A,,Unknown,0,2013-05-01 22:56:00
5:56 PM,27.0,14.0,58,30.56,-9999.0,Variable,3.5,-,N/A,,Unknown,0,2013-05-01 23:56:00
6:56 PM,28.0,14.0,56,30.56,-9999.0,Calm,Calm,-,N/A,,Unknown,0,2013-05-02 00:56:00
7:56 PM,28.0,6.1,39,30.58,-9999.0,Variable,4.6,-,N/A,,Unknown,0,2013-05-02 01:56:00
8:56 PM,26.1,7.0,44,30.61,-9999.0,NW,3.5,-,N/A,,Unknown,320,2013-05-02 02:56:00
9:56 PM,21.0,10.0,63,30.66,-9999.0,Calm,Calm,-,N/A,,Unknown,0,2013-05-02 03:56:00
10:56 PM,16.0,9.0,74,30.69,-9999.0,Calm,Calm,-,N/A,,Unknown,0,2013-05-02 04:56:00
11:56 PM,14.0,7.0,74,30.72,-9999.0,Calm,Calm,-,N/A,,Unknown,0,2013-05-02 05:56:00